IRNSS-1B

Last updated on Tue Oct 08 2024 00:02:39 GMT+0000 (Coordinated Universal Time)

1 39635U 14017A 24280.98206333 .00000114 00000+0 00000+0 0 9993 2 39635 28.7752 250.9332 0019785 187.9852 345.7997 1.00275544 38590
UTC large
Height (km)
Speed (km/s)
/
Latitude / Longitude
Inclination (degrees)
Orbital Period (minutes)
Azimuth
Elevation
Range (km)
Doppler Factor

Next 0 passes for location: London (51.5072 / 0.1276)

Sorry there are no passes over London.